EN

Hourly Weather Fortoul

Today, 25 January, Monday

Time Temperature Precipitation Wind Pressure Humidity
00:00 +25°C° 0.1 mm 1 mps 738 mmHg 80%
01:00 +25°C° 0.1 mm 1 mps 738 mmHg 81%
02:00 +24°C° 0 mm 1 mps 738 mmHg 79%
03:00 +24°C° 0 mm 1 mps 737 mmHg 79%
04:00 +24°C° 0 mm 1 mps 737 mmHg 78%
05:00 +25°C° 0 mm 1 mps 738 mmHg 78%
06:00 +25°C° 0 mm 1 mps 738 mmHg 77%
07:00 +25°C° 0 mm 1 mps 739 mmHg 76%
08:00 +27°C° 0.3 mm 1 mps 739 mmHg 73%
09:00 +28°C° 0.3 mm 1 mps 739 mmHg 71%
10:00 +30°C° 0.3 mm 2 mps 740 mmHg 68%
11:00 +30°C° 0.6 mm 2 mps 739 mmHg 66%
12:00 +31°C° 0.6 mm 2 mps 738 mmHg 64%
13:00 +31°C° 0.6 mm 2 mps 737 mmHg 62%
14:00 +32°C° 0.1 mm 2 mps 737 mmHg 60%
15:00 +32°C° 0.1 mm 1 mps 736 mmHg 58%
16:00 +32°C° 0.1 mm 1 mps 736 mmHg 55%
17:00 +30°C° 0 mm 1 mps 736 mmHg 61%
18:00 +28°C° 0 mm 1 mps 737 mmHg 67%
19:00 +27°C° 0 mm 1 mps 737 mmHg 73%
20:00 +26°C° 0 mm 1 mps 737 mmHg 73%
21:00 +26°C° 0 mm 1 mps 738 mmHg 74%
22:00 +26°C° 0 mm 1 mps 738 mmHg 74%
23:00 +26°C° 0 mm 1 mps 738 mmHg 75%

Tomorrow, 26 January, Tuesday

Time Temperature Precipitation Wind Pressure Humidity
00:00 +26°C° 0 mm 1 mps 738 mmHg 75%
01:00 +25°C° 0 mm 1 mps 738 mmHg 76%
02:00 +25°C° 0 mm 1 mps 738 mmHg 75%
03:00 +26°C° 0 mm 1 mps 738 mmHg 75%
04:00 +26°C° 0 mm 1 mps 738 mmHg 74%
05:00 +26°C° 0 mm 1 mps 738 mmHg 74%
06:00 +26°C° 0 mm 1 mps 739 mmHg 74%
07:00 +26°C° 0 mm 1 mps 739 mmHg 74%
08:00 +27°C° 0.1 mm 1 mps 740 mmHg 72%
09:00 +28°C° 0.1 mm 1 mps 740 mmHg 71%
10:00 +29°C° 0.1 mm 1 mps 740 mmHg 69%
11:00 +30°C° 0.1 mm 1 mps 739 mmHg 63%
12:00 +31°C° 0.1 mm 1 mps 739 mmHg 57%
13:00 +34°C° 0.1 mm 2 mps 738 mmHg 50%
14:00 +32°C° 0 mm 2 mps 737 mmHg 51%
15:00 +32°C° 0 mm 2 mps 737 mmHg 51%
16:00 +32°C° 0 mm 1 mps 736 mmHg 51%
17:00 +30°C° 0 mm 1 mps 737 mmHg 57%
18:00 +28°C° 0 mm 1 mps 737 mmHg 63%
19:00 +27°C° 0 mm 1 mps 737 mmHg 69%
20:00 +26°C° 0 mm 1 mps 738 mmHg 70%
21:00 +26°C° 0 mm 1 mps 739 mmHg 71%
22:00 +25°C° 0 mm 1 mps 739 mmHg 72%
23:00 +25°C° 0 mm 1 mps 739 mmHg 72%

Day after tomorrow, 27 January, Wednesday

Time Temperature Precipitation Wind Pressure Humidity
00:00 +25°C° 0 mm 1 mps 739 mmHg 72%
01:00 +24°C° 0 mm 2 mps 739 mmHg 72%
02:00 +24°C° 0 mm 2 mps 739 mmHg 70%
03:00 +24°C° 0 mm 2 mps 738 mmHg 68%
04:00 +24°C° 0 mm 2 mps 738 mmHg 66%
05:00 +25°C° 0 mm 2 mps 739 mmHg 65%
06:00 +25°C° 0 mm 1 mps 739 mmHg 63%
07:00 +25°C° 0 mm 1 mps 740 mmHg 61%
08:00 +27°C° 0 mm 2 mps 740 mmHg 55%
09:00 +30°C° 0 mm 2 mps 740 mmHg 50%
10:00 +32°C° 0 mm 2 mps 741 mmHg 45%
11:00 +34°C° 0 mm 2 mps 740 mmHg 43%
12:00 +35°C° 0 mm 2 mps 739 mmHg 41%
13:00 +36°C° 0 mm 2 mps 738 mmHg 39%
14:00 +35°C° 0 mm 2 mps 738 mmHg 40%
15:00 +35°C° 0 mm 2 mps 737 mmHg 41%
16:00 +35°C° 0 mm 2 mps 737 mmHg 43%
17:00 +31°C° 0 mm 2 mps 737 mmHg 50%
18:00 +29°C° 0 mm 1 mps 737 mmHg 57%
19:00 +27°C° 0 mm 1 mps 738 mmHg 64%
20:00 +27°C° 0 mm 1 mps 738 mmHg 65%
21:00 +26°C° 0 mm 1 mps 739 mmHg 66%
22:00 +26°C° 0 mm 1 mps 739 mmHg 66%
23:00 +25°C° 0 mm 1 mps 739 mmHg 66%

28 January, Thursday

Time Temperature Precipitation Wind Pressure Humidity
00:00 +25°C° 0 mm 1 mps 739 mmHg 66%
01:00 +25°C° 0 mm 1 mps 738 mmHg 66%
02:00 +25°C° 0 mm 1 mps 738 mmHg 65%
03:00 +25°C° 0 mm 1 mps 738 mmHg 64%
04:00 +25°C° 0 mm 1 mps 738 mmHg 64%
05:00 +25°C° 0 mm 1 mps 738 mmHg 63%
06:00 +25°C° 0 mm 1 mps 739 mmHg 62%
07:00 +26°C° 0 mm 1 mps 739 mmHg 61%
08:00 +28°C° 0 mm 1 mps 740 mmHg 57%
09:00 +30°C° 0 mm 2 mps 740 mmHg 53%
10:00 +32°C° 0 mm 2 mps 740 mmHg 49%
11:00 +34°C° 0 mm 2 mps 739 mmHg 46%
12:00 +35°C° 0 mm 2 mps 738 mmHg 44%
13:00 +36°C° 0 mm 2 mps 737 mmHg 42%

29 January, Friday

Time Temperature Precipitation Wind Pressure Humidity

30 January, Saturday

Time Temperature Precipitation Wind Pressure Humidity
Show more

We Need Your Consent

Meteoprog and our Service Providers may store and access personal data such as cookies, device identifiers or other similar technologies on your device and process such data to personalise content and ads, as well as provide social media features and to analyse the traffic.

  • Store and/or access information on your device

    Cookies, device identifiers or other information can be stored or accessed on your device for the purposes indicated above.

  • Personalised ads and content, ad and content measurement, audience insights, and products development

    Ads and content can be personalised based on a profile. More data can be added to better personalise ads and content. Ad and content performance can be measured. Insights about the audience who saw the ads and content can be derived. Such data can be used to develop or improve user’s experience, systems and software.

By clicking ‘I Agree’ you will allow the use of indicated cookies, device identifiers, web beacons or other similar technologies. Your settings can be changed in the browser on your device.

For certain purposes, legitimate interests may be relied on, rather than consent. You can read more about this in our Privacy and Cookie Policy.